When you browse on this site, cookies collect data to enhance your experience and personalize the content and advertising you see.
Visit our Privacy Policy to learn more. By continuing to use the site, you agree to this use of cookies and data.
  • In Hungary
  • List of Countries
  • For 7 days
  • Water Temperature
  • Satellite Maps
  • Weather Map
  • News
  • Weather Widgets
  • user-avatar
    Login

    Hourly Weather Umer

    Today, 21 May, Tuesday

    Time Temperature Precipitation Wind Pressure Humidity
    00:00 +14°C° 0 mm 2 mps 729 mmHg 94%
    01:00 +13°C° 0 mm 2 mps 729 mmHg 95%
    02:00 +13°C° 0 mm 1 mps 729 mmHg 95%
    03:00 +12°C° 0 mm 1 mps 729 mmHg 95%
    04:00 +11°C° 0 mm 0 mps 728 mmHg 95%
    05:00 +13°C° 0 mm 1 mps 728 mmHg 90%
    06:00 +15°C° 0 mm 1 mps 728 mmHg 84%
    07:00 +16°C° 0 mm 1 mps 728 mmHg 79%
    08:00 +18°C° 0.1 mm 1 mps 728 mmHg 78%
    09:00 +18°C° 0.1 mm 1 mps 728 mmHg 78%
    10:00 +18°C° 0.1 mm 2 mps 728 mmHg 77%
    11:00 +18°C° 0.3 mm 2 mps 728 mmHg 77%
    12:00 +18°C° 0.3 mm 2 mps 727 mmHg 77%
    13:00 +18°C° 0.3 mm 3 mps 727 mmHg 77%
    14:00 +18°C° 1.3 mm 3 mps 727 mmHg 80%
    15:00 +18°C° 1.3 mm 3 mps 727 mmHg 82%
    16:00 +18°C° 1.3 mm 3 mps 727 mmHg 84%
    17:00 +17°C° 2.3 mm 3 mps 726 mmHg 86%
    18:00 +17°C° 2.3 mm 3 mps 726 mmHg 89%
    19:00 +16°C° 2.3 mm 3 mps 726 mmHg 91%
    20:00 +15°C° 0.3 mm 2 mps 726 mmHg 93%
    21:00 +14°C° 0.3 mm 2 mps 726 mmHg 95%
    22:00 +13°C° 0.3 mm 2 mps 726 mmHg 98%
    23:00 +13°C° 0.1 mm 2 mps 726 mmHg 98%

    Tomorrow, 22 May, Wednesday

    Time Temperature Precipitation Wind Pressure Humidity
    00:00 +13°C° 0.1 mm 2 mps 726 mmHg 98%
    01:00 +13°C° 0.1 mm 1 mps 726 mmHg 98%
    02:00 +13°C° 0.1 mm 2 mps 726 mmHg 98%
    03:00 +13°C° 0.1 mm 2 mps 726 mmHg 98%
    04:00 +13°C° 0.1 mm 2 mps 726 mmHg 98%
    05:00 +13°C° 0.3 mm 2 mps 727 mmHg 97%
    06:00 +13°C° 0.3 mm 2 mps 727 mmHg 97%
    07:00 +13°C° 0.3 mm 2 mps 727 mmHg 96%
    08:00 +13°C° 0.3 mm 2 mps 727 mmHg 96%
    09:00 +13°C° 0.3 mm 2 mps 727 mmHg 95%
    10:00 +13°C° 0.3 mm 2 mps 728 mmHg 95%
    11:00 +13°C° 0.2 mm 3 mps 728 mmHg 93%
    12:00 +13°C° 0.2 mm 3 mps 728 mmHg 92%
    13:00 +14°C° 0.2 mm 3 mps 728 mmHg 90%
    14:00 +16°C° 0.5 mm 3 mps 728 mmHg 89%
    15:00 +15°C° 0.5 mm 4 mps 728 mmHg 87%
    16:00 +17°C° 0.5 mm 4 mps 728 mmHg 85%
    17:00 +16°C° 1 mm 3 mps 729 mmHg 88%
    18:00 +16°C° 1 mm 3 mps 729 mmHg 90%
    19:00 +15°C° 1 mm 2 mps 729 mmHg 93%
    20:00 +15°C° 0.8 mm 2 mps 729 mmHg 94%
    21:00 +13°C° 0.8 mm 3 mps 730 mmHg 96%
    22:00 +12°C° 0.8 mm 3 mps 730 mmHg 97%
    23:00 +12°C° 0.1 mm 3 mps 730 mmHg 97%

    Day after tomorrow, 23 May, Thursday

    Time Temperature Precipitation Wind Pressure Humidity
    00:00 +12°C° 0.1 mm 3 mps 731 mmHg 98%
    01:00 +12°C° 0.1 mm 3 mps 731 mmHg 98%
    02:00 +12°C° 0.1 mm 3 mps 731 mmHg 98%
    03:00 +13°C° 0.1 mm 3 mps 732 mmHg 97%
    04:00 +13°C° 0.1 mm 4 mps 732 mmHg 97%
    05:00 +13°C° 0.7 mm 4 mps 732 mmHg 96%
    06:00 +13°C° 0.7 mm 4 mps 733 mmHg 96%
    07:00 +13°C° 0.7 mm 5 mps 733 mmHg 95%
    08:00 +13°C° 0.6 mm 5 mps 734 mmHg 95%
    09:00 +12°C° 0.6 mm 5 mps 734 mmHg 95%
    10:00 +11°C° 0.6 mm 6 mps 734 mmHg 95%
    11:00 +10°C° 0.2 mm 6 mps 734 mmHg 95%
    12:00 +10°C° 0.2 mm 6 mps 735 mmHg 94%
    13:00 +9°C° 0.2 mm 6 mps 735 mmHg 94%
    14:00 +9°C° 0.1 mm 6 mps 735 mmHg 92%
    15:00 +9°C° 0.1 mm 6 mps 735 mmHg 91%
    16:00 +9°C° 0.1 mm 6 mps 736 mmHg 89%
    17:00 +9°C° 0 mm 5 mps 736 mmHg 87%
    18:00 +10°C° 0 mm 4 mps 736 mmHg 85%
    19:00 +10°C° 0 mm 4 mps 736 mmHg 83%
    20:00 +10°C° 0 mm 3 mps 736 mmHg 83%
    21:00 +10°C° 0 mm 3 mps 736 mmHg 82%
    22:00 +10°C° 0 mm 3 mps 736 mmHg 81%
    23:00 +10°C° 0 mm 3 mps 736 mmHg 83%

    24 May, Friday

    Time Temperature Precipitation Wind Pressure Humidity
    00:00 +10°C° 0 mm 3 mps 736 mmHg 84%
    01:00 +10°C° 0 mm 3 mps 736 mmHg 86%
    02:00 +9°C° 0 mm 2 mps 736 mmHg 89%
    03:00 +8°C° 0 mm 2 mps 736 mmHg 91%
    04:00 +7°C° 0 mm 2 mps 736 mmHg 94%
    05:00 +8°C° 0 mm 2 mps 736 mmHg 84%
    06:00 +9°C° 0 mm 3 mps 736 mmHg 73%
    07:00 +11°C° 0 mm 3 mps 736 mmHg 63%
    08:00 +12°C° 0 mm 3 mps 736 mmHg 58%
    09:00 +14°C° 0 mm 3 mps 736 mmHg 52%
    10:00 +16°C° 0 mm 3 mps 736 mmHg 47%
    11:00 +17°C° 0 mm 3 mps 735 mmHg 46%
    12:00 +18°C° 0 mm 3 mps 735 mmHg 45%
    13:00 +18°C° 0 mm 3 mps 734 mmHg 44%
    14:00 +18°C° 0 mm 3 mps 734 mmHg 46%
    15:00 +18°C° 0 mm 3 mps 734 mmHg 48%
    16:00 +18°C° 0 mm 3 mps 733 mmHg 49%
    17:00 +17°C° 0 mm 2 mps 733 mmHg 57%
    18:00 +15°C° 0 mm 2 mps 733 mmHg 64%
    19:00 +14°C° 0 mm 1 mps 733 mmHg 71%
    20:00 +13°C° 0 mm 1 mps 733 mmHg 74%
    21:00 +11°C° 0 mm 0 mps 733 mmHg 76%
    22:00 +10°C° 0 mm 0 mps 733 mmHg 78%
    23:00 +10°C° 0 mm 0 mps 733 mmHg 80%

    25 May, Saturday

    Time Temperature Precipitation Wind Pressure Humidity
    00:00 +9°C° 0 mm 0 mps 733 mmHg 82%
    01:00 +10°C° 0 mm 1 mps 733 mmHg 83%
    02:00 +9°C° 0 mm 0 mps 733 mmHg 84%
    03:00 +9°C° 0 mm 0 mps 733 mmHg 85%
    04:00 +8°C° 0 mm 0 mps 733 mmHg 87%
    05:00 +11°C° 0 mm 0 mps 733 mmHg 80%
    06:00 +14°C° 0 mm 1 mps 733 mmHg 73%
    07:00 +16°C° 0 mm 1 mps 733 mmHg 66%
    08:00 +18°C° 0 mm 1 mps 733 mmHg 61%
    09:00 +19°C° 0 mm 1 mps 733 mmHg 57%
    10:00 +20°C° 0 mm 2 mps 733 mmHg 52%
    11:00 +20°C° 0 mm 2 mps 733 mmHg 50%
    12:00 +21°C° 0 mm 2 mps 732 mmHg 49%
    13:00 +21°C° 0 mm 2 mps 732 mmHg 47%
    14:00 +21°C° 0 mm 2 mps 732 mmHg 49%
    15:00 +21°C° 0 mm 2 mps 732 mmHg 50%
    16:00 +21°C° 0 mm 2 mps 732 mmHg 52%
    17:00 +20°C° 0.2 mm 2 mps 732 mmHg 62%
    18:00 +18°C° 0.2 mm 2 mps 731 mmHg 73%
    19:00 +16°C° 0.2 mm 1 mps 731 mmHg 83%
    20:00 +15°C° 0.1 mm 1 mps 732 mmHg 86%
    21:00 +14°C° 0.1 mm 1 mps 732 mmHg 88%
    22:00 +14°C° 0.1 mm 1 mps 732 mmHg 91%
    23:00 +13°C° 0 mm 1 mps 733 mmHg 93%

    26 May, Sunday

    Time Temperature Precipitation Wind Pressure Humidity
    00:00 +12°C° 0 mm 2 mps 733 mmHg 95%
    01:00 +12°C° 0 mm 2 mps 733 mmHg 97%
    02:00 +12°C° 0 mm 2 mps 733 mmHg 96%
    03:00 +11°C° 0 mm 3 mps 733 mmHg 95%
    04:00 +11°C° 0 mm 3 mps 734 mmHg 95%
    05:00 +11°C° 0 mm 3 mps 734 mmHg 91%
    06:00 +11°C° 0 mm 3 mps 734 mmHg 86%
    07:00 +13°C° 0 mm 2 mps 734 mmHg 82%
    08:00 +12°C° 0 mm 3 mps 735 mmHg 76%
    09:00 +13°C° 0 mm 4 mps 735 mmHg 71%
    10:00 +14°C° 0 mm 4 mps 735 mmHg 65%
    11:00 +15°C° 0 mm 4 mps 735 mmHg 62%
    12:00 +15°C° 0 mm 4 mps 735 mmHg 59%
    13:00 +17°C° 0 mm 4 mps 735 mmHg 56%
    14:00 +17°C° 0 mm 4 mps 735 mmHg 57%
    15:00 +17°C° 0 mm 3 mps 735 mmHg 58%
    16:00 +17°C° 0 mm 3 mps 735 mmHg 59%
    17:00 +16°C° 0 mm 2 mps 735 mmHg 64%
    18:00 +15°C° 0 mm 2 mps 735 mmHg 69%
    19:00 +14°C° 0 mm 1 mps 734 mmHg 75%
    20:00 +13°C° 0 mm 1 mps 735 mmHg 79%
    21:00 +12°C° 0 mm 1 mps 735 mmHg 82%
    22:00 +11°C° 0 mm 1 mps 735 mmHg 86%
    23:00 +11°C° 0 mm 1 mps 735 mmHg 87%
    Show more